Location: Gu�tanj
(46.5431°N, 14.9692°E)
Time: 15:54:53
(UTC+00:00)

Cosmos 2369 Rocket - Pass Details

Date: 03 March 2021
Orbit: 829 x 852 km, 71.0° (Epoch: 17 April)

Event Time Altitude Azimuth Distance (km) Brightness Sun altitude
Rises 19:45:54 0° 341° (NNW) 3,383 5.9 -30.5°
Reaches altitude 10° 19:49:35 10° 5° (N) 2,447 4.8 -31.1°
Enters shadow 19:51:02 13° 19° (NNE) 2,226 4.4 -31.3°
